TimeMDT,TemperatureF,Dew PointF,Humidity,Sea Level PressureIn,VisibilityMPH,Wind Direction,Wind SpeedMPH,Gust SpeedMPH,PrecipitationIn,Events,Conditions,WindDirDegrees,DateUTC
12:56 AM,64.4,59.0,83,30.14,10.0,NNW,5.8,-,N/A,,Clear,330,2013-09-17 06:56:00
1:56 AM,64.4,59.0,83,30.14,10.0,NNW,4.6,-,N/A,,Clear,340,2013-09-17 07:56:00
2:56 AM,64.4,59.0,83,30.13,10.0,NE,5.8,-,N/A,,Clear,40,2013-09-17 08:56:00
3:56 AM,64.4,59.0,83,30.12,10.0,NNE,5.8,-,N/A,,Clear,30,2013-09-17 09:56:00
4:56 AM,66.2,59.0,78,30.11,10.0,Variable,2.3,-,N/A,,Clear,0,2013-09-17 10:56:00
5:56 AM,64.4,60.8,88,30.12,10.0,Calm,Calm,-,N/A,,Clear,360,2013-09-17 11:56:00
6:56 AM,64.4,60.8,88,30.14,10.0,NE,5.8,-,N/A,,Clear,50,2013-09-17 12:56:00
7:58 AM,65.5,60.1,83,30.15,10.0,ENE,2.3,-,N/A,,Clear,70,2013-09-17 13:58:00
8:58 AM,70.3,59.9,69,30.15,10.0,Calm,Calm,-,N/A,,Clear,0,2013-09-17 14:58:00
9:58 AM,73.2,60.1,63,30.15,10.0,Calm,Calm,-,N/A,,Clear,0,2013-09-17 15:58:00
10:58 AM,73.9,60.8,63,30.14,10.0,South,4.6,-,N/A,,Clear,190,2013-09-17 16:58:00
11:58 AM,76.5,61.7,60,30.12,10.0,East,2.3,-,N/A,,Clear,100,2013-09-17 17:58:00
12:58 PM,77.5,62.2,59,30.09,10.0,South,5.8,-,N/A,,Clear,180,2013-09-17 18:58:00
1:58 PM,79.9,62.6,55,30.06,10.0,SSE,8.1,-,N/A,,Clear,160,2013-09-17 19:58:00
2:58 PM,80.8,61.3,51,30.03,10.0,South,5.8,-,N/A,,Clear,170,2013-09-17 20:58:00
3:58 PM,81.5,61.3,50,30.00,10.0,South,6.9,-,N/A,,Clear,170,2013-09-17 21:58:00
4:58 PM,81.7,61.2,50,29.99,10.0,SSE,8.1,-,N/A,,Clear,160,2013-09-17 22:58:00
5:58 PM,80.1,60.8,52,29.99,10.0,South,10.4,-,N/A,,Clear,170,2013-09-17 23:58:00
6:58 PM,78.3,61.3,56,29.98,10.0,South,10.4,-,N/A,,Clear,170,2013-09-18 00:58:00
7:58 PM,74.7,63.0,67,29.82,10.0,SSE,10.4,-,N/A,,Clear,160,2013-09-18 01:58:00
8:58 PM,72.7,63.0,71,29.84,10.0,SSE,8.1,-,N/A,,Clear,160,2013-09-18 02:58:00
9:58 PM,72.5,61.3,68,29.84,10.0,SSE,16.1,-,N/A,,Clear,150,2013-09-18 03:58:00
10:58 PM,71.2,60.4,69,29.85,10.0,South,11.5,-,N/A,,Clear,170,2013-09-18 04:58:00
11:58 PM,71.1,59.9,68,29.85,10.0,SSE,12.7,-,N/A,,Clear,160,2013-09-18 05:58:00